Location: Helstorf
(52.5868°N, 9.5862°E)
Time: 07:27:55
(UTC+00:00)

Cosmos 1726 Rocket - Pass Details

Date: 15 May 2026
Orbit: 555 x 660 km, 82.5° (Epoch: 6 June)

Event Time Altitude Azimuth Distance (km) Brightness Sun altitude
Exits shadow 21:25:49 20° 185° (S) 1,312 4.7 -14.3°
Maximum altitude 21:28:32 83° 100° (E) 567 3.3 -14.5°
Drops below altitude 10° 21:32:37 10° 12° (NNE) 1,856 6.8 -14.8°
Sets 21:34:48 0° 12° (NNE) 2,764 7.8 -15.0°
